Regional Weather Roundup
Issued by NWS

Home | Current Version | Previous Version | Graphics & Text | Print | Product List | Glossary On
Versions: 1 2 3 4 5 6 7 8 9 10 11 12 13 14 15 16 17 18 19 20 21 22 23 24 25 26 27 28 29 30 31 32 33 34 35 36 37 38 39 40 41 42 43 44 45 46 47 48 49 50
198
ASUS44 KLIX 171207
RWRLA
LOUISIANA WEATHER ROUNDUP
NATIONAL WEATHER SERVICE NEW ORLEANS LA
700 AM CDT FRI APR 17 2015

NOTE: "FAIR" INDICATES FEW OR NO CLOUDS BELOW 12,000 FEET WITH NO
      SIGNIFICANT WEATHER AND/OR OBSTRUCTIONS TO VISIBILITY.
      SKY/WX - SKY CONDITION AND SIGNIFICANT WEATHER.
      TMP - AIR TEMPERATURE.    DP   - DEWPOINT TEMPERATURE.
      RH  - RELATIVE HUMIDITY.  PRES - PRESSURE.
      HX  - HEAT INDEX.         WCI  - WIND CHILL INDEX.

*  THESE STATIONS ARE NOT NWS OR FAA STATIONS AND ARE NOT UNDER
   NWS QUALITY CONTROL.

LAZ040-048-061>063-065-066-069-171300-
SOUTHEAST LOUISIANA

CITY           SKY/WX    TMP DP  RH WIND       PRES   REMARKS
N.O. AUDUBON     N/A     69  69 100 MISG        N/A
6HR MIN TEMP:  67; 6HR MAX TEMP:  71; 6HR PCP:  0.20;

N.O. INTL ARPT MOCLDY    69  65  86 CALM      29.99F
6HR MIN TEMP:  67; 6HR MAX TEMP:  70; 6HR PCP:  0.09;

N.O. LAKEFRONT LGT RAIN  74  68  81 N6        29.99F
6HR MIN TEMP:  71; 6HR MAX TEMP:  74; 6HR PCP:  0.19;

SLIDELL        MOCLDY    68  68 100 N5        29.99F
6HR MIN TEMP:  68; 6HR MAX TEMP:  71; 6HR PCP:  0.09;

BATON ROUGE    MOCLDY    67  66  97 CALM      29.95F
6HR MIN TEMP:  66; 6HR MAX TEMP:  68; 6HR PCP:  0.08;

BOOTHVILLE     CLOUDY    70  69  97 SE7       29.99R FOG
6HR MIN TEMP:  68; 6HR MAX TEMP:  70; 6HR PCP:  0.93;

BELLE CHASSE   MOCLDY    69  66  90 CALM      29.98F
6HR MIN TEMP:  68; 6HR MAX TEMP:  70; 6HR PCP:  0.47;

BOGALUSA*        N/A     69  66  90 CALM      30.01S
6HR MIN TEMP:  68; 6HR MAX TEMP:  70; 6HR PCP:  0.03;

GALLIANO*      CLOUDY    70  68  93 N5        29.99S
6HR MIN TEMP:  67; 6HR MAX TEMP:  70; 6HR PCP:  0.32;

NEW ROADS*     FAIR      67  65  92 E5        29.92F
6HR MIN TEMP:  65; 6HR MAX TEMP:  67; 6HR PCP:  0.07;

GONZALES*      PTSUNNY   67  67 100 S3        29.95F
6HR MIN TEMP:  67; 6HR MAX TEMP:  69; 6HR PCP:  0.01;

HAMMOND*       MOCLDY    68  66  94 SE9       29.98F
HOUMA*         CLOUDY    68  66  94 N7        29.99S
PORT FOURCHON* CLOUDY    72  70  94 E7        30.01S

$$

LAZ041-044-053-054-171300-
SOUTHWEST LOUISIANA

CITY           SKY/WX    TMP DP  RH WIND       PRES   REMARKS
LAKE CHARLES   MOCLDY    66  62  87 SE5       29.90R
6HR MIN TEMP:  65; 6HR MAX TEMP:  66; 6HR PCP:  0.13;

LAFAYETTE      PTCLDY    67  67 100 SE3       29.90F
6HR MIN TEMP:  67; 6HR MAX TEMP:  68; 6HR PCP:  0.15;

PATTERSON      PTCLDY    66  64  94 SE6       29.98F
6HR MIN TEMP:  66; 6HR MAX TEMP:  68;

SALT POINT       N/A     67  66  97 SE5       29.96F
6HR MIN TEMP:  67; 6HR MAX TEMP:  69; 6HR PCP:  0.03;

NEW IBERIA     CLEAR     67  65  93 SE15      29.90F
6HR MIN TEMP:  66; 6HR MAX TEMP:  69; 6HR PCP:  0.03;

CHENAULT AIRPK NOT AVBL

$$

LAZ027-028-171300-
CENTRAL LOUISIANA

CITY           SKY/WX    TMP DP  RH WIND       PRES   REMARKS
FORT POLK      MOCLDY    62  61  97 NE7       29.95R
6HR MIN TEMP:  62; 6HR MAX TEMP:  65; 6HR PCP:  0.11;

ALEXANDRIA INT CLOUDY    63  62  97 N6        29.95R
6HR MIN TEMP:  63; 6HR MAX TEMP:  65; 6HR PCP:  0.04;

ALEXANDRIA     CLOUDY    63  63 100 N5        29.96S
6HR MIN TEMP:  62; 6HR MAX TEMP:  65; 6HR PCP:  0.02;


$$

LAZ001-002-171300-
NORTHWEST LOUISIANA

CITY           SKY/WX    TMP DP  RH WIND       PRES   REMARKS
SHREVEPORT     MOCLDY    62  60  93 N3        29.98R
6HR MIN TEMP:  61; 6HR MAX TEMP:  65;

BARKSDALE AFB  NOT AVBL
DTN SHREVEPORT CLOUDY    63  60  90 N7        29.98R
6HR MIN TEMP:  62; 6HR MAX TEMP:  64;


$$

LAZ014-016-171300-
NORTHEAST LOUISIANA

CITY           SKY/WX    TMP DP  RH WIND       PRES   REMARKS
MONROE         PTCLDY    61  61 100 CALM      29.98R FOG
6HR MIN TEMP:  62; 6HR MAX TEMP:  66;

TALLULAH       MOCLDY    63  62  97 E3        29.98S FOG
6HR MIN TEMP:  63; 6HR MAX TEMP:  67; 6HR PCP: TRACE;


$$




USA.gov is the U.S. government's official web portal to all federal, state and local government web resources and services.